Weather History for KSNC - February, 2013

Change the Weather History Date:

Friday, February 1, 2013

  Actual Average (KHVN) Record (KHVN)
Temperature  
Mean Temperature 26 °F -  
Max Temperature 32 °F 36 °F 42 °F (2014)
Min Temperature 21 °F 23 °F 6 °F (2015)
Degree Days  
Heating Degree Days 38    
Moisture  
Dew Point 8 °F    
Average Humidity 43    
Maximum Humidity 55    
Minimum Humidity 30    
Precipitation  
Precipitation 0.00 in - - ()
Sea Level Pressure  
Sea Level Pressure 29.88 in    
Wind  
Wind Speed 9 mph (WNW)    
Max Wind Speed 17 mph    
Max Gust Speed 29 mph    
Visibility 10 miles    
Events      
Averages and records for this station are not official NWS values.
T = Trace of Precipitation, MM = Missing Value Source: NWS Daily Summary

Daily Weather History Graph

Daily Weather History Graph

Search for Another Location

Airport or City:

Trip Planner

Search our weather history database for the weather conditions in past years. The results will help you decide how hot, cold, wet, or windy it might be!

Date:

Astronomy

Feb. 01, 2013 Rise Set
Actual Time 7:01 AM EST 5:06 PM EST
Civil Twilight 6:31 AM EST 5:35 PM EST
Nautical Twilight 5:58 AM EST 6:08 PM EST
Astronomical Twilight 5:26 AM EST 6:41 PM EST
Moon 11:15 PM EST (2/1) 9:28 AM EST (2/1)
Length of Visible Light 11h 03m
Length of Day
10h 05m
Waning Gibbous, 70% of the Moon is Illuminated
Feb 1
Waning Gibbous
Feb 3
Last Quarter
Feb 10
New
Feb 17
First Quarter
Feb 25
Full

Hourly Weather History & Observations

Time (EST) Temp. Windchill Dew Point Humidity Pressure Visibility Wind Dir Wind Speed Gust Speed Precip Events Conditions
12:15 AM 30.2 °F 21.3 °F 12.2 °F 47% 29.69 in 10.0 mi West 10.4 mph 18.4 mph N/A   Clear
12:35 AM 30.2 °F 21.9 °F 10.4 °F 44% 29.70 in 10.0 mi West 9.2 mph 19.6 mph N/A   Clear
12:55 AM 30.2 °F 21.9 °F 10.4 °F 44% 29.71 in 10.0 mi West 9.2 mph - N/A   Clear
1:15 AM 30.2 °F 21.9 °F 8.6 °F 40% 29.72 in 10.0 mi West 9.2 mph 17.3 mph N/A   Clear
1:35 AM 30.2 °F 18.5 °F 8.6 °F 40% 29.72 in 10.0 mi West 17.3 mph 23.0 mph N/A   Clear
1:55 AM 30.2 °F 21.9 °F 6.8 °F 37% 29.73 in 10.0 mi West 9.2 mph 19.6 mph N/A   Clear
2:15 AM 30.2 °F 22.6 °F 8.6 °F 40% 29.73 in 10.0 mi West 8.1 mph 21.9 mph N/A   Clear
2:35 AM 30.2 °F 21.3 °F 8.6 °F 40% 29.74 in 10.0 mi West 10.4 mph 23.0 mph N/A   Clear
2:55 AM 28.4 °F 20.4 °F 10.4 °F 47% 29.74 in 10.0 mi West 8.1 mph 17.3 mph N/A   Clear
3:15 AM 28.4 °F 18.0 °F 10.4 °F 47% 29.74 in 10.0 mi West 12.7 mph 16.1 mph N/A   Clear
3:35 AM 28.4 °F 21.2 °F 10.4 °F 47% 29.74 in 10.0 mi West 6.9 mph - N/A   Clear
3:55 AM 28.4 °F 21.2 °F 10.4 °F 47% 29.74 in 10.0 mi West 6.9 mph 16.1 mph N/A   Clear
4:15 AM 28.4 °F 23.3 °F 10.4 °F 47% 29.74 in 10.0 mi West 4.6 mph - N/A   Clear
4:35 AM 28.4 °F 20.4 °F 10.4 °F 47% 29.74 in 10.0 mi WSW 8.1 mph 17.3 mph N/A   Clear
4:55 AM 28.4 °F 19.7 °F 12.2 °F 51% 29.75 in 10.0 mi West 9.2 mph - N/A   Clear
5:15 AM 28.4 °F 19.1 °F 12.2 °F 51% 29.76 in 10.0 mi West 10.4 mph 16.1 mph N/A   Clear
5:35 AM 28.4 °F 20.4 °F 12.2 °F 51% 29.77 in 10.0 mi WSW 8.1 mph 16.1 mph N/A   Clear
5:55 AM 28.4 °F 20.4 °F 12.2 °F 51% 29.77 in 10.0 mi West 8.1 mph 17.3 mph N/A   Clear
6:15 AM 28.4 °F 19.1 °F 12.2 °F 51% 29.78 in 10.0 mi West 10.4 mph 16.1 mph N/A   Clear
6:35 AM 28.4 °F 18.5 °F 12.2 °F 51% 29.79 in 10.0 mi West 11.5 mph 19.6 mph N/A   Clear
6:55 AM 28.4 °F 19.7 °F 12.2 °F 51% 29.81 in 10.0 mi West 9.2 mph 17.3 mph N/A   Clear
7:15 AM 28.4 °F 19.7 °F 12.2 °F 51% 29.81 in 10.0 mi West 9.2 mph 17.3 mph N/A   Clear
7:35 AM 30.2 °F 22.6 °F 12.2 °F 47% 29.82 in 10.0 mi West 8.1 mph 23.0 mph N/A   Clear
7:55 AM 30.2 °F 21.3 °F 12.2 °F 47% 29.82 in 10.0 mi WNW 10.4 mph 21.9 mph N/A   Clear
8:15 AM 30.2 °F 21.3 °F 10.4 °F 44% 29.81 in 10.0 mi WNW 10.4 mph 23.0 mph N/A   Clear
8:35 AM 30.2 °F 23.4 °F 10.4 °F 44% 29.80 in 10.0 mi NW 6.9 mph 23.0 mph N/A   Clear
8:55 AM 30.2 °F 21.9 °F 10.4 °F 44% 29.80 in 10.0 mi NW 9.2 mph 17.3 mph N/A   Clear
9:15 AM 30.2 °F 22.6 °F 10.4 °F 44% 29.81 in 10.0 mi WNW 8.1 mph 23.0 mph N/A   Clear
9:35 AM 30.2 °F 20.2 °F 10.4 °F 44% 29.81 in 10.0 mi NW 12.7 mph 24.2 mph N/A   Clear
9:55 AM 30.2 °F 21.9 °F 10.4 °F 44% 29.82 in 10.0 mi NW 9.2 mph 18.4 mph N/A   Clear
10:15 AM 32.0 °F 25.6 °F 8.6 °F 38% 29.82 in 10.0 mi NW 6.9 mph - N/A   Partly Cloudy
10:35 AM 32.0 °F 26.4 °F 8.6 °F 38% 29.82 in 10.0 mi NNW 5.8 mph - N/A   Scattered Clouds
10:55 AM 32.0 °F 23.0 °F 8.6 °F 38% 29.80 in 10.0 mi NNW 11.5 mph - N/A   Scattered Clouds
11:15 AM 32.0 °F 23.0 °F 10.4 °F 41% 29.78 in 10.0 mi NNW 11.5 mph 21.9 mph N/A   Mostly Cloudy
11:35 AM 32.0 °F 22.5 °F 10.4 °F 41% 29.78 in 10.0 mi NNW 12.7 mph 18.4 mph N/A   Mostly Cloudy
11:55 AM 32.0 °F 23.0 °F 8.6 °F 38% 29.78 in 10.0 mi North 11.5 mph 17.3 mph N/A   Mostly Cloudy
12:15 PM 32.0 °F 22.5 °F 8.6 °F 38% 29.79 in 10.0 mi NW 12.7 mph 17.3 mph N/A   Scattered Clouds
12:35 PM 32.0 °F 23.6 °F 8.6 °F 38% 29.79 in 10.0 mi NW 10.4 mph 18.4 mph N/A   Mostly Cloudy
12:55 PM 32.0 °F 22.5 °F 5.0 °F 32% 29.80 in 10.0 mi NNW 12.7 mph 19.6 mph N/A   Mostly Cloudy
1:15 PM 32.0 °F 22.5 °F 5.0 °F 32% 29.80 in 10.0 mi North 12.7 mph 16.1 mph N/A   Scattered Clouds
1:35 PM 32.0 °F 24.8 °F 5.0 °F 32% 29.81 in 10.0 mi NW 8.1 mph 20.7 mph N/A   Scattered Clouds
1:55 PM 32.0 °F 23.6 °F 5.0 °F 32% 29.82 in 10.0 mi NNW 10.4 mph 21.9 mph N/A   Scattered Clouds
2:15 PM 32.0 °F 23.6 °F 5.0 °F 32% 29.83 in 10.0 mi NW 10.4 mph 19.6 mph N/A   Partly Cloudy
2:35 PM 32.0 °F 22.1 °F 3.2 °F 30% 29.84 in 10.0 mi NW 13.8 mph 28.8 mph N/A   Scattered Clouds
2:55 PM 30.2 °F 21.3 °F 3.2 °F 32% 29.86 in 10.0 mi NW 10.4 mph 21.9 mph N/A   Partly Cloudy
3:15 PM 32.0 °F 22.5 °F 3.2 °F 30% 29.87 in 10.0 mi NW 12.7 mph 21.9 mph N/A   Partly Cloudy
3:35 PM 30.2 °F 20.2 °F 5.0 °F 34% 29.88 in 10.0 mi NW 12.7 mph 16.1 mph N/A   Partly Cloudy
3:55 PM 30.2 °F 21.9 °F 10.4 °F 44% 29.90 in 6.0 mi NW 9.2 mph 25.3 mph N/A   Haze
4:15 PM 30.2 °F 19.3 °F 6.8 °F 37% 29.91 in 10.0 mi NW 15.0 mph 21.9 mph N/A   Partly Cloudy
4:35 PM 30.2 °F 21.9 °F 8.6 °F 40% 29.93 in 10.0 mi NW 9.2 mph 21.9 mph N/A   Partly Cloudy
4:55 PM 28.4 °F 18.0 °F 10.4 °F 47% 29.95 in 10.0 mi NW 12.7 mph 23.0 mph N/A   Mostly Cloudy
5:15 PM 26.6 °F 20.0 °F 12.2 °F 55% 29.97 in 10.0 mi WNW 5.8 mph 16.1 mph N/A   Scattered Clouds
5:35 PM 26.6 °F 21.2 °F 12.2 °F 55% 29.99 in 10.0 mi WNW 4.6 mph - N/A   Partly Cloudy
5:55 PM 28.4 °F 20.4 °F 8.6 °F 43% 30.01 in 10.0 mi NNW 8.1 mph 19.6 mph N/A   Clear
6:15 PM 26.6 °F 16.8 °F 5.0 °F 40% 30.02 in 10.0 mi NNW 10.4 mph 19.6 mph N/A   Clear
6:35 PM 26.6 °F 18.2 °F 5.0 °F 40% 30.04 in 10.0 mi NW 8.1 mph 18.4 mph N/A   Clear
6:55 PM 26.6 °F 19.1 °F 5.0 °F 40% 30.05 in 10.0 mi NNW 6.9 mph - N/A   Clear
7:15 PM 26.6 °F 18.2 °F 3.2 °F 37% 30.06 in 10.0 mi NW 8.1 mph - N/A   Clear
7:35 PM 26.6 °F 18.2 °F 3.2 °F 37% 30.07 in 10.0 mi NNW 8.1 mph - N/A   Clear
7:55 PM 24.8 °F 17.9 °F 3.2 °F 40% 30.08 in 10.0 mi NW 5.8 mph - N/A   Clear
8:15 PM 24.8 °F 19.1 °F 3.2 °F 40% 30.08 in 10.0 mi NW 4.6 mph - N/A   Clear
8:35 PM 23.0 °F 17.0 °F 3.2 °F 43% 30.09 in 10.0 mi NW 4.6 mph - N/A   Clear
8:55 PM 23.0 °F 18.4 °F 3.2 °F 43% 30.10 in 10.0 mi NW 3.5 mph - N/A   Clear
9:15 PM 23.0 °F 17.0 °F 5.0 °F 46% 30.11 in 10.0 mi NW 4.6 mph - N/A   Clear
9:35 PM 23.0 °F - 5.0 °F 46% 30.12 in 10.0 mi Calm Calm - N/A   Clear
9:55 PM 21.2 °F - 5.0 °F 50% 30.12 in 10.0 mi Calm Calm - N/A   Clear
10:15 PM 21.2 °F - 5.0 °F 50% 30.12 in 10.0 mi Calm Calm - N/A   Clear
10:35 PM 21.2 °F - 5.0 °F 50% 30.13 in 10.0 mi Calm Calm - N/A   Clear
10:55 PM 21.2 °F 16.4 °F 5.0 °F 50% 30.13 in 10.0 mi West 3.5 mph - N/A   Clear
11:15 PM 21.2 °F 14.9 °F 5.0 °F 50% 30.14 in 10.0 mi West 4.6 mph - N/A   Clear
11:35 PM 21.2 °F 14.9 °F 5.0 °F 50% 30.15 in 10.0 mi West 4.6 mph - N/A   Clear
11:55 PM 21.2 °F 16.4 °F 5.0 °F 50% 30.14 in 10.0 mi West 3.5 mph - N/A   Clear